This demonstration page uses our WeatherBlox Daily Observations layout. Learn more.

Left ArrowRight Arrow

Hourly Observations for May 22, 2015

Temp ( °F °C ) Dew Point ( °F °C ) Humidity (%) Winds ( mph kmh ) Pressure ( in mb ) Visibility ( mi km ) Precip ( " mm )
12:58 am 00:58 Clear 54 12.3 42 5.4 63 63 W 5 7 30.19 1022 10 16 0.00 0.00
1:58 am 01:58 Clear 54 12 41 5.2 63 63 WSW 3 6 30.21 1023 10 16 0.00 0.00
2:58 am 02:58 Clear 47 8.6 42 5.8 83 83 Calm 30.20 1023 10 16 0.00 0.00
3:58 am 03:58 Clear 44 6.5 41 5 90 90 ESE 1 2 30.19 1022 10 16 0.00 0.00
4:58 am 04:58 Clear 43 6 41 5.1 94 94 NE 2 4 30.20 1023 10 16 0.00 0.00
5:58 am 05:58 Clear 44 6.9 42 5.5 91 91 Calm 30.21 1023 10 16 0.00 0.00
6:58 am 06:58 Sunny 46 7.6 43 6.3 92 92 Calm 30.21 1023 10 16 0.00 0.00
7:58 am 07:58 Sunny 53 11.5 48 8.7 83 83 Calm 30.22 1023 10 16 0.00 0.00
8:58 am 08:58 Sunny 58 14.4 47 8.3 67 67 SSW 1 2 30.24 1024 10 16 0.00 0.00
9:58 am 09:58 Sunny 63 17 48 8.7 58 58 ESE 2 4 30.24 1024 10 16 0.00 0.00
10:58 am 10:58 Sunny 64 17.8 45 7.3 50 50 Calm 30.24 1024 10 16 0.00 0.00
11:58 am 11:58 Mostly Sunny 66 18.9 48 8.8 52 52 VRB 2 4 30.24 1024 10 16 0.00 0.00
12:58 pm 12:58 Mostly Sunny 67 19.2 46 7.8 48 48 SSE 6 9 30.24 1024 10 16 0.00 0.00
1:58 pm 13:58 Mostly Sunny 67 19.5 46 7.6 46 46 S 8 13 30.24 1024 10 16 0.00 0.00
2:58 pm 14:58 Sunny 62 16.8 51 10.7 67 67 WSW 6 9 30.24 1024 10 16 0.00 0.03
3:58 pm 15:58 Sunny 62 16.9 51 10.4 66 66 NE 7 11 30.24 1024 10 16 0.00 0.03
4:58 pm 16:58 Mostly Sunny 67 19.2 49 9.4 53 53 E 5 7 30.22 1024 10 16 0.00 0.00
5:58 pm 17:58 Mostly Sunny 66 19 48 9 52 52 E 7 11 30.20 1023 10 16 0.00 0.00
6:58 pm 18:58 Mostly Sunny 66 19.1 45 7.4 47 47 SE 12 19 30.18 1022 10 16 0.00 0.00
7:58 pm 19:58 Partly Cloudy 64 17.5 48 8.7 56 56 SE 6 9 30.18 1022 10 16 0.00 0.00
8:06 pm 20:06 Mostly Cloudy with Light Rain 63 17 48 9 59 59 SE 6 9 30.18 1022 10 16 0.00 0.00
8:16 pm 20:16 Partly Cloudy 63 17 50 10 64 64 S 5 7 30.18 1022 10 16 0.00 0.00
8:37 pm 20:37 Partly Cloudy with Light Rain 63 17 48 9 59 59 SE 5 7 30.18 1022 10 16 0.00 0.00
8:58 pm 20:58 Partly Cloudy with Light Rain 60 15.7 51 10.4 71 71 SE 5 7 30.18 1022 10 16 0.01 0.25
8:59 pm 20:59 Partly Cloudy 61 16 52 11 72 72 SE 5 7 30.18 1022 10 16 0.00 0.00
9:58 pm 21:58 Mostly Cloudy 59 14.9 51 10.5 75 75 ESE 5 7 30.19 1022 10 16 0.00 0.03
10:58 pm 22:58 Cloudy 58 14.6 50 10 74 74 SE 3 6 30.19 1023 10 16 0.00 0.00
11:58 pm 23:58 Cloudy 58 14.3 50 10 76 76 ESE 3 6 30.19 1022 10 16 0.00 0.00

Powered by AerisWeather